• în Republica Moldova
  • Lista ţărilor
  • Pe 7 zile
  • Temperatura apei
  • Hartă satelitară
  • Meteo pe hartă
  • Widget-uri
  • user-avatar
    Intrare

    Meteo pe oră la Mingachevir

    Astăzi, 25 Iulie, Marţi

    Timp Temperatura Precipitaţii Vânt Presiune Umiditate
    00:00 +27°C° 0 mm 3 m/s 748 mmHg 59%
    01:00 +26°C° 0 mm 2 m/s 748 mmHg 61%
    02:00 +26°C° 0 mm 2 m/s 748 mmHg 62%
    03:00 +25°C° 0 mm 2 m/s 748 mmHg 63%
    04:00 +26°C° 0 mm 2 m/s 748 mmHg 62%
    05:00 +26°C° 0 mm 1 m/s 748 mmHg 61%
    06:00 +26°C° 0 mm 1 m/s 748 mmHg 59%
    07:00 +28°C° 0 mm 1 m/s 748 mmHg 54%
    08:00 +30°C° 0 mm 2 m/s 748 mmHg 48%
    09:00 +31°C° 0 mm 2 m/s 747 mmHg 43%
    10:00 +34°C° 0 mm 2 m/s 747 mmHg 39%
    11:00 +35°C° 0 mm 2 m/s 747 mmHg 35%
    12:00 +36°C° 0 mm 2 m/s 746 mmHg 31%
    13:00 +37°C° 0 mm 2 m/s 746 mmHg 29%
    14:00 +38°C° 0 mm 3 m/s 745 mmHg 28%
    15:00 +38°C° 0 mm 3 m/s 745 mmHg 26%
    16:00 +38°C° 0 mm 3 m/s 745 mmHg 27%
    17:00 +38°C° 0 mm 3 m/s 745 mmHg 28%
    18:00 +37°C° 0 mm 3 m/s 745 mmHg 28%
    19:00 +36°C° 0 mm 3 m/s 745 mmHg 32%
    20:00 +34°C° 0 mm 4 m/s 746 mmHg 36%
    21:00 +32°C° 0 mm 4 m/s 747 mmHg 40%
    22:00 +30°C° 0 mm 3 m/s 747 mmHg 43%
    23:00 +29°C° 0 mm 3 m/s 747 mmHg 46%

    Mâine, 26 Iulie, Miercuri

    Timp Temperatura Precipitaţii Vânt Presiune Umiditate
    00:00 +28°C° 0 mm 3 m/s 747 mmHg 50%
    01:00 +28°C° 0 mm 2 m/s 747 mmHg 52%
    02:00 +27°C° 0 mm 2 m/s 747 mmHg 53%
    03:00 +27°C° 0 mm 2 m/s 747 mmHg 55%
    04:00 +27°C° 0 mm 1 m/s 747 mmHg 54%
    05:00 +27°C° 0 mm 1 m/s 747 mmHg 52%
    06:00 +28°C° 0 mm 1 m/s 747 mmHg 51%
    07:00 +30°C° 0 mm 2 m/s 747 mmHg 46%
    08:00 +31°C° 0 mm 2 m/s 747 mmHg 41%
    09:00 +34°C° 0 mm 2 m/s 747 mmHg 36%
    10:00 +35°C° 0 mm 2 m/s 747 mmHg 33%
    11:00 +36°C° 0 mm 2 m/s 746 mmHg 30%
    12:00 +38°C° 0 mm 2 m/s 746 mmHg 27%
    13:00 +38°C° 0 mm 2 m/s 746 mmHg 26%
    14:00 +39°C° 0 mm 3 m/s 745 mmHg 25%
    15:00 +40°C° 0 mm 3 m/s 745 mmHg 24%
    16:00 +40°C° 0 mm 3 m/s 745 mmHg 24%
    17:00 +39°C° 0 mm 3 m/s 745 mmHg 25%
    18:00 +39°C° 0 mm 3 m/s 745 mmHg 26%
    19:00 +37°C° 0 mm 4 m/s 746 mmHg 30%
    20:00 +35°C° 0 mm 4 m/s 747 mmHg 34%
    21:00 +33°C° 0 mm 4 m/s 747 mmHg 39%
    22:00 +32°C° 0 mm 4 m/s 748 mmHg 41%
    23:00 +30°C° 0 mm 3 m/s 748 mmHg 43%

    Poimâine, 27 Iulie, Joi

    Timp Temperatura Precipitaţii Vânt Presiune Umiditate
    00:00 +29°C° 0 mm 2 m/s 748 mmHg 45%
    01:00 +29°C° 0 mm 2 m/s 748 mmHg 46%
    02:00 +28°C° 0 mm 2 m/s 748 mmHg 47%
    03:00 +28°C° 0 mm 1 m/s 748 mmHg 48%
    04:00 +28°C° 0 mm 1 m/s 748 mmHg 47%
    05:00 +28°C° 0 mm 1 m/s 749 mmHg 47%
    06:00 +29°C° 0 mm 2 m/s 749 mmHg 46%
    07:00 +30°C° 0 mm 2 m/s 749 mmHg 41%
    08:00 +32°C° 0 mm 2 m/s 749 mmHg 37%
    09:00 +35°C° 0 mm 2 m/s 748 mmHg 33%
    10:00 +36°C° 0 mm 2 m/s 748 mmHg 30%
    11:00 +37°C° 0 mm 2 m/s 748 mmHg 28%
    12:00 +39°C° 0 mm 2 m/s 747 mmHg 25%
    13:00 +39°C° 0 mm 2 m/s 747 mmHg 24%
    14:00 +40°C° 0 mm 2 m/s 747 mmHg 23%
    15:00 +41°C° 0 mm 2 m/s 746 mmHg 22%
    16:00 +41°C° 0 mm 2 m/s 746 mmHg 22%
    17:00 +40°C° 0 mm 2 m/s 746 mmHg 22%
    18:00 +40°C° 0 mm 2 m/s 747 mmHg 23%
    19:00 +38°C° 0 mm 2 m/s 747 mmHg 25%
    20:00 +36°C° 0 mm 3 m/s 748 mmHg 28%
    21:00 +34°C° 0 mm 3 m/s 748 mmHg 30%
    22:00 +33°C° 0 mm 3 m/s 748 mmHg 32%
    23:00 +31°C° 0 mm 3 m/s 748 mmHg 34%

    28 Iulie, Vineri

    Timp Temperatura Precipitaţii Vânt Presiune Umiditate
    00:00 +30°C° 0 mm 3 m/s 748 mmHg 36%
    01:00 +30°C° 0 mm 2 m/s 748 mmHg 37%
    02:00 +29°C° 0 mm 2 m/s 748 mmHg 38%
    03:00 +29°C° 0 mm 1 m/s 748 mmHg 40%
    04:00 +29°C° 0 mm 1 m/s 748 mmHg 39%
    05:00 +30°C° 0 mm 1 m/s 748 mmHg 38%
    06:00 +30°C° 0 mm 1 m/s 748 mmHg 38%
    07:00 +32°C° 0 mm 2 m/s 748 mmHg 34%
    08:00 +35°C° 0 mm 2 m/s 748 mmHg 30%
    09:00 +37°C° 0 mm 2 m/s 748 mmHg 26%
    10:00 +38°C° 0 mm 2 m/s 747 mmHg 24%
    11:00 +40°C° 0 mm 2 m/s 747 mmHg 23%
    12:00 +41°C° 0 mm 2 m/s 747 mmHg 21%
    13:00 +42°C° 0 mm 2 m/s 746 mmHg 20%
    14:00 +42°C° 0 mm 2 m/s 746 mmHg 19%
    15:00 +43°C° 0 mm 2 m/s 745 mmHg 18%
    16:00 +43°C° 0 mm 2 m/s 745 mmHg 19%
    17:00 +43°C° 0 mm 2 m/s 745 mmHg 20%
    18:00 +42°C° 0 mm 2 m/s 745 mmHg 20%
    19:00 +40°C° 0 mm 2 m/s 746 mmHg 24%
    20:00 +38°C° 0 mm 3 m/s 746 mmHg 27%
    21:00 +35°C° 0 mm 3 m/s 747 mmHg 30%
    22:00 +34°C° 0 mm 3 m/s 747 mmHg 33%
    23:00 +33°C° 0 mm 3 m/s 747 mmHg 36%

    29 Iulie, Sâmbătă

    Timp Temperatura Precipitaţii Vânt Presiune Umiditate
    00:00 +31°C° 0 mm 2 m/s 747 mmHg 39%
    01:00 +31°C° 0 mm 2 m/s 747 mmHg 40%
    02:00 +30°C° 0 mm 1 m/s 747 mmHg 42%
    03:00 +29°C° 0 mm 1 m/s 747 mmHg 43%
    04:00 +30°C° 0 mm 1 m/s 747 mmHg 41%
    05:00 +31°C° 0 mm 2 m/s 747 mmHg 39%
    06:00 +31°C° 0 mm 2 m/s 748 mmHg 37%
    07:00 +35°C° 0 mm 3 m/s 747 mmHg 32%
    08:00 +37°C° 0 mm 3 m/s 747 mmHg 26%
    09:00 +40°C° 0 mm 4 m/s 747 mmHg 21%
    10:00 +42°C° 0 mm 4 m/s 746 mmHg 19%
    11:00 +43°C° 0 mm 4 m/s 746 mmHg 17%
    12:00 +45°C° 0 mm 3 m/s 746 mmHg 15%
    13:00 +46°C° 0 mm 3 m/s 745 mmHg 15%
    14:00 +46°C° 0 mm 3 m/s 745 mmHg 14%
    15:00 +47°C° 0 mm 3 m/s 744 mmHg 13%
    16:00 +46°C° 0 mm 2 m/s 744 mmHg 14%
    17:00 +45°C° 0 mm 1 m/s 745 mmHg 15%
    18:00 +44°C° 0 mm 1 m/s 745 mmHg 16%
    19:00 +42°C° 0 mm 2 m/s 746 mmHg 19%
    20:00 +39°C° 0 mm 3 m/s 746 mmHg 22%
    21:00 +37°C° 0 mm 4 m/s 747 mmHg 25%
    22:00 +36°C° 0 mm 4 m/s 748 mmHg 30%
    23:00 +35°C° 0 mm 5 m/s 748 mmHg 34%

    30 Iulie, Duminică

    Timp Temperatura Precipitaţii Vânt Presiune Umiditate
    00:00 +34°C° 0 mm 5 m/s 749 mmHg 39%
    01:00 +33°C° 0 mm 5 m/s 749 mmHg 40%
    02:00 +33°C° 0 mm 5 m/s 749 mmHg 41%
    03:00 +32°C° 0 mm 5 m/s 749 mmHg 41%
    04:00 +32°C° 0 mm 5 m/s 750 mmHg 42%
    05:00 +32°C° 0 mm 5 m/s 750 mmHg 42%
    06:00 +32°C° 0 mm 5 m/s 750 mmHg 42%
    07:00 +34°C° 0 mm 6 m/s 750 mmHg 38%
    08:00 +35°C° 0 mm 6 m/s 750 mmHg 34%
    09:00 +38°C° 0 mm 6 m/s 750 mmHg 30%
    10:00 +39°C° 0 mm 5 m/s 750 mmHg 27%
    11:00 +40°C° 0 mm 5 m/s 749 mmHg 25%
    12:00 +41°C° 0 mm 4 m/s 749 mmHg 23%
    13:00 +42°C° 0 mm 3 m/s 749 mmHg 22%
    14:00 +42°C° 0 mm 3 m/s 749 mmHg 22%
    15:00 +42°C° 0 mm 2 m/s 748 mmHg 21%
    16:00 +41°C° 0 mm 2 m/s 748 mmHg 22%
    17:00 +41°C° 0 mm 2 m/s 749 mmHg 23%
    18:00 +40°C° 0 mm 3 m/s 749 mmHg 25%
    19:00 +38°C° 0 mm 3 m/s 749 mmHg 31%
    20:00 +36°C° 0 mm 4 m/s 750 mmHg 37%
    21:00 +33°C° 0 mm 4 m/s 751 mmHg 43%
    22:00 +31°C° 0 mm 3 m/s 751 mmHg 46%
    23:00 +31°C° 0 mm 3 m/s 751 mmHg 49%
    Arată mai mult